铱星星座 142星 (IRIDIUM 142)

导读

IRIDIUM 142是美国于2018年3月30日发射的低轨道通信卫星,隶属于铱星(Iridium)卫星通信系统。该系统由美国打造,是全球首个覆盖极地、海洋及偏远区域的低轨移动通信星座,依靠星上交换与星际链路实现无缝全球连接。IRIDIUM 142作为系统组网卫星,承担语音通信、数据传输等服务,支持海事、航空、应急救援等场景,助力铱星系统维持全天候的全球通信覆盖能力。

基本信息
目录编号:
43256
目录名称:
IRIDIUM 142
国际标识:
2018-030H
轨道中心:
EARTH
卫星名称:
铱星星座 142星
卫星全名:
铱星星座 142星 (IRIDIUM 142)
卫星状态:
在轨 (已飞行3041 天)
发射日期:
2018-03-30 UTC
国别 :
美国 (US)
星等 :
--
轨道信息
数据来源 国际轨道数据 AOE轨道数据
星历时间 2026-07-27T21:49:11+0800
9小时前
查看轨道信息
2026-07-23T01:00:00+0800
5天前
查看轨道信息
半长轴 7155.806km 7155.805km
偏心率 0.000243 0.0002542
轨道倾角 86.394° 86.395°
近地点辐角 93.369° 102.067°
升交点赤经 273.462° 275.497°
平近点角 266.778° 342.202°
近地点 775.93km 775.848km
远地点 779.408km 779.488km
周期 100.403分钟 100.403分钟
每日圈数 14.342174 14.342175
详细信息
平衡模式:
三轴稳定
覆盖范围:
全球
运营商:
铱星通信公司
运营商所在国:
美国
制造商(研发单位):
阿莱尼亚宇航公司
制造商所在国:
意大利
使用方式:
暂无
卫星简介
铱星(Iridium)是由共66个运作中的通信卫星组成的卫星通信系统。这个系统原本规划77个通信卫星,所以用原子序数为77的铱元素来命名。铱卫星允许人们使用手持型电子设备进行全球性的语音及数据通讯。该卫星仍在工作。
2D轨道图
3D轨道图
轨道高度分析图
轨道倾角分析图
轨道综合分析图
查看轨道综合分析图